Tracking 25953 objects as of 16-Aug-2022
HD Live streaming from Space Station
objects crossing your sky now

TITAN 34D TRANSTAGE DEB

Track TITAN 34D TRANSTAGE DEB now!


NORAD ID: 22669
Int'l Code: 1988-077E
Perigee: 428.0 km
Apogee: 38,303.2 km
Inclination: 27.2 °
Period: 684.8 minutes
Semi major axis: 25736 km
RCS: Unknown
Launch date: September 2, 1988
Source: United States (US)
Launch site: AIR FORCE EASTERN TEST RANGE (AFETR)

Note: This is SATELLITE DEBRIS
aabbcc
Your satellite tracking list
Your tracking list is empty




NASA's NSSDC Master Catalog

Two Line Element Set (TLE):
1 22669U 88077E   22228.22179356 -.00000214  00000-0  30817-3 0  9996
2 22669  27.2407 306.8438 7358250 317.8840   4.8943  2.10269756 24510
Source of the keplerian elements: AFSPC